• In Hungary
  • List of Countries
  • For 7 days
  • Water Temperature
  • Satellite Maps
  • Weather Map
  • News
  • Weather Widgets
  • user-avatar
    Login

    Hourly Weather Ashaga-Stal

    Today, 24 September, Monday

    Time Temperature Precipitation Wind Pressure Humidity
    00:00 +18°C° 0 mm 2 mps 719 mmHg 74%
    01:00 +18°C° 0 mm 2 mps 719 mmHg 72%
    02:00 +18°C° 0 mm 2 mps 719 mmHg 70%
    03:00 +18°C° 0 mm 2 mps 719 mmHg 65%
    04:00 +18°C° 0 mm 2 mps 719 mmHg 63%
    05:00 +18°C° 0 mm 2 mps 719 mmHg 61%
    06:00 +18°C° 0 mm 2 mps 719 mmHg 58%
    07:00 +20°C° 0 mm 2 mps 720 mmHg 54%
    08:00 +23°C° 0 mm 2 mps 720 mmHg 50%
    09:00 +25°C° 0 mm 2 mps 721 mmHg 46%
    10:00 +26°C° 0 mm 2 mps 721 mmHg 45%
    11:00 +26°C° 0 mm 3 mps 721 mmHg 44%
    12:00 +27°C° 0 mm 3 mps 721 mmHg 43%
    13:00 +27°C° 0 mm 3 mps 721 mmHg 45%
    14:00 +26°C° 0 mm 3 mps 721 mmHg 47%
    15:00 +26°C° 0 mm 3 mps 721 mmHg 49%
    16:00 +24°C° 0 mm 2 mps 721 mmHg 57%
    17:00 +21°C° 0 mm 2 mps 720 mmHg 64%
    18:00 +21°C° 0 mm 1 mps 720 mmHg 72%
    19:00 +20°C° 0 mm 1 mps 720 mmHg 72%
    20:00 +20°C° 0 mm 1 mps 720 mmHg 72%
    21:00 +20°C° 0 mm 1 mps 720 mmHg 72%
    22:00 +19°C° 0 mm 2 mps 720 mmHg 71%
    23:00 +19°C° 0 mm 2 mps 720 mmHg 70%

    Tomorrow, 25 September, Tuesday

    Time Temperature Precipitation Wind Pressure Humidity
    00:00 +19°C° 0 mm 2 mps 720 mmHg 68%
    01:00 +19°C° 0 mm 2 mps 719 mmHg 67%
    02:00 +19°C° 0 mm 2 mps 719 mmHg 66%
    03:00 +18°C° 0 mm 3 mps 719 mmHg 64%
    04:00 +18°C° 0 mm 3 mps 718 mmHg 63%
    05:00 +18°C° 0 mm 3 mps 718 mmHg 63%
    06:00 +18°C° 0 mm 3 mps 718 mmHg 62%
    07:00 +21°C° 0 mm 3 mps 718 mmHg 55%
    08:00 +25°C° 0 mm 3 mps 718 mmHg 48%
    09:00 +28°C° 0 mm 3 mps 718 mmHg 41%
    10:00 +29°C° 0 mm 3 mps 717 mmHg 39%
    11:00 +30°C° 0 mm 3 mps 717 mmHg 38%
    12:00 +32°C° 0 mm 4 mps 717 mmHg 36%
    13:00 +32°C° 0 mm 4 mps 716 mmHg 37%
    14:00 +32°C° 0 mm 4 mps 716 mmHg 37%
    15:00 +30°C° 0 mm 4 mps 716 mmHg 38%
    16:00 +28°C° 0 mm 3 mps 716 mmHg 46%
    17:00 +26°C° 0 mm 2 mps 715 mmHg 55%
    18:00 +23°C° 0 mm 2 mps 715 mmHg 64%
    19:00 +23°C° 0 mm 2 mps 716 mmHg 63%
    20:00 +23°C° 0 mm 2 mps 716 mmHg 62%
    21:00 +23°C° 0 mm 2 mps 717 mmHg 62%
    22:00 +21°C° 0 mm 2 mps 717 mmHg 62%
    23:00 +21°C° 0 mm 2 mps 717 mmHg 63%

    Day after tomorrow, 26 September, Wednesday

    Time Temperature Precipitation Wind Pressure Humidity
    00:00 +21°C° 0 mm 2 mps 717 mmHg 63%
    01:00 +20°C° 0 mm 2 mps 717 mmHg 66%
    02:00 +20°C° 0 mm 2 mps 717 mmHg 69%
    03:00 +20°C° 0 mm 2 mps 717 mmHg 72%
    04:00 +19°C° 0 mm 3 mps 718 mmHg 78%
    05:00 +19°C° 0 mm 4 mps 718 mmHg 83%
    06:00 +18°C° 0 mm 4 mps 719 mmHg 89%
    07:00 +19°C° 0 mm 5 mps 719 mmHg 83%
    08:00 +20°C° 0 mm 5 mps 720 mmHg 77%
    09:00 +21°C° 0 mm 6 mps 720 mmHg 71%
    10:00 +20°C° 0 mm 6 mps 721 mmHg 72%
    11:00 +20°C° 0 mm 6 mps 721 mmHg 73%
    12:00 +19°C° 0 mm 6 mps 721 mmHg 74%
    13:00 +19°C° 0 mm 6 mps 721 mmHg 74%
    14:00 +19°C° 0 mm 6 mps 721 mmHg 74%
    15:00 +17°C° 0 mm 5 mps 721 mmHg 74%
    16:00 +16°C° 0 mm 5 mps 721 mmHg 78%
    17:00 +15°C° 0 mm 5 mps 722 mmHg 82%
    18:00 +14°C° 0 mm 4 mps 722 mmHg 85%
    19:00 +14°C° 0 mm 4 mps 722 mmHg 86%
    20:00 +14°C° 0 mm 4 mps 723 mmHg 86%
    21:00 +14°C° 0 mm 3 mps 723 mmHg 86%
    22:00 +13°C° 0 mm 3 mps 723 mmHg 86%
    23:00 +13°C° 0 mm 3 mps 723 mmHg 86%

    27 September, Thursday

    Time Temperature Precipitation Wind Pressure Humidity
    00:00 +13°C° 0 mm 3 mps 723 mmHg 86%
    01:00 +13°C° 0 mm 3 mps 723 mmHg 86%
    02:00 +13°C° 0 mm 3 mps 723 mmHg 86%
    03:00 +13°C° 0 mm 2 mps 723 mmHg 86%
    04:00 +12°C° 0 mm 3 mps 723 mmHg 86%
    05:00 +12°C° 0 mm 3 mps 723 mmHg 86%
    06:00 +12°C° 0 mm 3 mps 723 mmHg 86%
    07:00 +14°C° 0 mm 3 mps 724 mmHg 79%
    08:00 +15°C° 0 mm 4 mps 724 mmHg 73%
    09:00 +17°C° 0 mm 4 mps 725 mmHg 66%
    10:00 +18°C° 0 mm 4 mps 724 mmHg 64%
    11:00 +19°C° 0 mm 4 mps 724 mmHg 62%
    12:00 +19°C° 0 mm 4 mps 724 mmHg 60%
    13:00 +19°C° 0 mm 4 mps 724 mmHg 61%
    14:00 +19°C° 0 mm 4 mps 724 mmHg 62%
    15:00 +19°C° 0 mm 4 mps 723 mmHg 64%
    16:00 +17°C° 0 mm 3 mps 723 mmHg 70%
    17:00 +16°C° 0 mm 2 mps 724 mmHg 77%
    18:00 +14°C° 0 mm 2 mps 724 mmHg 84%
    19:00 +14°C° 0 mm 2 mps 724 mmHg 84%
    20:00 +14°C° 0 mm 2 mps 724 mmHg 84%
    21:00 +14°C° 0 mm 2 mps 724 mmHg 84%
    22:00 +14°C° 0 mm 1 mps 724 mmHg 84%
    23:00 +14°C° 0 mm 1 mps 724 mmHg 83%

    28 September, Friday

    Time Temperature Precipitation Wind Pressure Humidity
    00:00 +14°C° 0 mm 1 mps 723 mmHg 82%
    01:00 +14°C° 0 mm 1 mps 723 mmHg 80%
    02:00 +14°C° 0 mm 1 mps 723 mmHg 79%
    03:00 +13°C° 0 mm 1 mps 723 mmHg 77%
    04:00 +14°C° 0 mm 1 mps 723 mmHg 76%
    05:00 +14°C° 0 mm 1 mps 723 mmHg 75%
    06:00 +14°C° 0 mm 1 mps 723 mmHg 74%
    07:00 +16°C° 0 mm 1 mps 724 mmHg 67%
    08:00 +18°C° 0 mm 2 mps 724 mmHg 61%
    09:00 +20°C° 0 mm 2 mps 724 mmHg 55%
    10:00 +21°C° 0 mm 3 mps 724 mmHg 54%
    11:00 +22°C° 0 mm 3 mps 724 mmHg 53%
    12:00 +23°C° 0 mm 4 mps 724 mmHg 52%
    13:00 +22°C° 0 mm 4 mps 724 mmHg 55%
    14:00 +22°C° 0 mm 4 mps 723 mmHg 58%
    15:00 +22°C° 0 mm 4 mps 723 mmHg 61%
    16:00 +20°C° 0 mm 3 mps 723 mmHg 69%
    17:00 +18°C° 0 mm 3 mps 723 mmHg 78%
    18:00 +16°C° 0 mm 2 mps 723 mmHg 87%
    19:00 +16°C° 0 mm 2 mps 723 mmHg 86%
    20:00 +16°C° 0 mm 2 mps 723 mmHg 85%
    21:00 +16°C° 0 mm 2 mps 723 mmHg 84%
    22:00 +16°C° 0 mm 2 mps 723 mmHg 82%
    23:00 +16°C° 0 mm 2 mps 722 mmHg 81%

    29 September, Saturday

    Time Temperature Precipitation Wind Pressure Humidity
    00:00 +16°C° 0 mm 2 mps 722 mmHg 80%
    01:00 +15°C° 0 mm 2 mps 722 mmHg 79%
    02:00 +15°C° 0 mm 2 mps 722 mmHg 78%
    03:00 +15°C° 0 mm 2 mps 721 mmHg 77%
    04:00 +15°C° 0 mm 2 mps 721 mmHg 76%
    05:00 +14°C° 0 mm 3 mps 721 mmHg 74%
    06:00 +14°C° 0 mm 3 mps 721 mmHg 73%
    07:00 +18°C° 0 mm 3 mps 721 mmHg 66%
    08:00 +20°C° 0 mm 3 mps 721 mmHg 59%
    09:00 +24°C° 0 mm 3 mps 721 mmHg 51%
    10:00 +25°C° 0 mm 3 mps 721 mmHg 50%
    11:00 +26°C° 0 mm 3 mps 720 mmHg 48%
    12:00 +27°C° 0 mm 4 mps 720 mmHg 46%
    13:00 +27°C° 0 mm 3 mps 719 mmHg 47%
    14:00 +27°C° 0 mm 3 mps 719 mmHg 48%
    15:00 +27°C° 0 mm 3 mps 718 mmHg 49%
    16:00 +25°C° 0 mm 3 mps 718 mmHg 58%
    17:00 +23°C° 0 mm 2 mps 718 mmHg 67%
    18:00 +21°C° 0 mm 1 mps 718 mmHg 75%
    19:00 +20°C° 0 mm 2 mps 718 mmHg 71%
    20:00 +20°C° 0 mm 2 mps 718 mmHg 66%
    21:00 +20°C° 0 mm 2 mps 718 mmHg 62%
    22:00 +20°C° 0 mm 2 mps 718 mmHg 58%
    23:00 +20°C° 0 mm 2 mps 718 mmHg 54%
    Show more